COSMOS 249 DEB *, 3758

Orbit data source: Space-Track

COSMOS 249 DEB *, 3758 is space debris in LEO originally from a launch on Sun, 20 Oct 1968 UTC launched from the Tyuratam Missile And Space Complex (TTMTR). Debris objects in space refer to the collection of defunct objects orbiting the Earth. Examples of debris include non-operational satellites, rocket bodies, and fragments generated from explosions, collisions, or faulty payload assembly.

Loading next visibility...
Identifier
3758, 1968-091AV
Orbit
LEO
Country
Flag of CISCIS
Related business
Manufacturer
Unknown
Mission
Spacecraft
Bus & Motor
Unknown
Mass
Unknown
Launch date (UTC)
1968-10-20 (58 years ago)
Launch vehicle
Unknown
Launch site
Tyuratam Missile And Space Complex (TTMTR)
Object type
Payload
Rocket body
Debris
Shape & HBR
Unknown shape, 0.1 m
Radar Cross Section
Small (<0.1 m²)

Expand to show TLE details & history
Last TLE update: 2 days ago

TLE from 2 days ago
0 COSMOS 249 DEB *
1 03758U 68091AV  26125.31596135  .00000412  00000-0  56131-3 0  9992
2 03758  62.2606 228.1731 0780058  95.4809 273.5579 12.82470092608393
Epoch: 2026-05-05T07:34Z
TLE epoch observation values (Epoch: 2026-05-05T07:34:59.060Z)
Latitude
-0.00003°
Longitude
-108.76556°
Altitude
1,342.75 km
Speed
7.183 km/s
True Right ascension
15h 12m 41s
True Declination
0° 00' 00"
Sunlit
Object was in full shadow at epoch
Visualization orbit readout
Latitude
Unknown
Longitude
Unknown
Altitude
Unknown
Speed
Unknown
Apparent Right ascension
Unknown
Apparent Declination
Unknown
Sunlit
N/A
Visualization observer readout
Local Sidereal Time
05:08:32
Azimuth
Unknown
Elevation
Unknown
Doppler factor
Unknown
Orbital elements
Apogee altitude
1,931.873 km
Perigee altitude
729.228 km
Semi-major axis
7,708.687 km
Eccentricity
0.07801
Inclination
62.2606°
RAAN
228.1731°
Arg. of periapsis
95.4809°
True anomaly
264.61845°
Mean anomaly
273.5579°
Eccentric anomaly
269.08906°
Mean motion
3.2068 °/min
Orbital period
112.26 mins
BSTAR
0.00056131
Loading maneuver chart data...
Computing Atmospheric mass density...
Loading historical data...
Loading historical data...
Loading historical data...
Loading historical data...
Loading historical data...
Loading historical data...
Loading historical data...

Documentation

Showing up to 5 results
|